Orbital Elements at Epoch 2459000.5 (2020-May-31.0) TDB
Reference: JPL 26 (heliocentric ecliptic J2000)
Element | Value | Uncertainty (1-sigma) | Units |
e | .1323776845126092 | 5.0965e-08 | |
a | 2.624101772906954 | 1.9392e-08 | au |
q | 2.276729256284098 | 1.4068e-07 | au |
i | 9.651223882409672 | 5.0982e-06 | deg |
node | 139.7617118119919 | 2.701e-05 | deg |
peri | 230.8915819486666 | 3.2342e-05 | deg |
M | 276.9660628435017 | 2.1111e-05 | deg |
tp | 2459358.615046898009 (2021-May-24.11504690) | 9.2931e-05 | TDB |
period | 1552.635239255227 4.25 | 1.7211e-05 4.712e-08 | d yr |
n | .23186386016376 | 2.5701e-09 | deg/d |
Q | 2.971474289529809 | 2.1959e-08 | au |
|
| | Orbit Determination Parameters
Additional Information
|